AFL1731 UHPP-UUEE

Flight info

Callsign AFL1731
Flight time N/A
Altitude 34000
Route BAKEN4L BAKEN A812 OKMUT/K0893F360 A812 OLEGA T411 LABAR M131 DIRPU/K0898F380 M131 AMEGO P65 ROMTA ROMTA3E
Aircraft B77W/H-SDE1E2E3FGHIJ2J3J4J5M1RWXY/LB1D1

Departure

Time 2026-05-05 22:18
Airport Yelizovo Airport (UHPP)

Arrival

Time N/A
Airport Sheremetyevo International Airport (UUEE)
Time Latitude Longitude Altitude Speed Heading
2026-05-05 21:28 53.16942 158.42681 93 ft 0 kts 243°
2026-05-05 22:06 53.16944 158.42690 94 ft 1 kts 243°
2026-05-05 22:06 53.16951 158.42710 94 ft 2 kts 242°
2026-05-05 22:07 53.16961 158.42742 95 ft 3 kts 236°
2026-05-05 22:07 53.16973 158.42763 95 ft 2 kts 213°
2026-05-05 22:07 53.16989 158.42774 96 ft 2 kts 185°
2026-05-05 22:07 53.17008 158.42768 95 ft 3 kts 160°
2026-05-05 22:08 53.17033 158.42755 95 ft 3 kts 165°
2026-05-05 22:08 53.17056 158.42739 95 ft 3 kts 143°
2026-05-05 22:08 53.17063 158.42728 95 ft 0 kts 137°
2026-05-05 22:10 53.17056 158.42738 95 ft 3 kts 137°
2026-05-05 22:10 53.17035 158.42786 96 ft 6 kts 104°
2026-05-05 22:11 53.17054 158.42886 96 ft 12 kts 60°
2026-05-05 22:11 53.17104 158.43031 97 ft 15 kts 60°
2026-05-05 22:11 53.17167 158.43210 98 ft 19 kts 59°
2026-05-05 22:11 53.17239 158.43417 102 ft 21 kts 59°
2026-05-05 22:12 53.17319 158.43643 104 ft 23 kts 59°
2026-05-05 22:12 53.17395 158.43857 108 ft 19 kts 59°
2026-05-05 22:12 53.17453 158.44029 111 ft 15 kts 64°
2026-05-05 22:12 53.17489 158.44168 114 ft 11 kts 67°
2026-05-05 22:13 53.17526 158.44318 114 ft 16 kts 67°
2026-05-05 22:13 53.17566 158.44478 118 ft 13 kts 67°
2026-05-05 22:13 53.17582 158.44590 119 ft 8 kts 108°
2026-05-05 22:13 53.17519 158.44662 122 ft 14 kts 157°
2026-05-05 22:14 53.17401 158.44744 123 ft 21 kts 157°
2026-05-05 22:14 53.17237 158.44855 125 ft 29 kts 157°
2026-05-05 22:14 53.17029 158.44997 128 ft 35 kts 156°
2026-05-05 22:14 53.16782 158.45171 133 ft 41 kts 156°
2026-05-05 22:15 53.16510 158.45362 133 ft 43 kts 156°
2026-05-05 22:15 53.16222 158.45563 132 ft 46 kts 157°
2026-05-05 22:15 53.15954 158.45746 134 ft 29 kts 157°
2026-05-05 22:15 53.15795 158.45854 134 ft 20 kts 157°
2026-05-05 22:16 53.15672 158.45915 134 ft 17 kts 182°
2026-05-05 22:16 53.15580 158.45906 132 ft 10 kts 166°
2026-05-05 22:16 53.15543 158.45972 131 ft 6 kts 86°
2026-05-05 22:16 53.15567 158.46009 132 ft 5 kts
2026-05-05 22:17 53.15592 158.45997 132 ft 5 kts 337°
2026-05-05 22:17 53.15692 158.45929 134 ft 46 kts 337°
2026-05-05 22:17 53.15829 158.45835 134 ft 74 kts 337°
2026-05-05 22:17 53.16541 158.45341 133 ft 145 kts 337°
2026-05-05 22:18 53.17636 158.44582 378 ft 185 kts 336°
2026-05-05 22:18 53.18791 158.43741 1253 ft 187 kts 334°
2026-05-05 22:18 53.19991 158.42864 1815 ft 196 kts 335°
2026-05-05 22:18 53.21277 158.41965 2324 ft 208 kts 336°
2026-05-05 22:19 53.22662 158.41032 2803 ft 223 kts 335°
2026-05-05 22:19 53.24141 158.40015 3369 ft 238 kts 335°
2026-05-05 22:19 53.25706 158.38933 4024 ft 250 kts 335°
2026-05-05 22:19 53.27302 158.37830 4933 ft 251 kts 335°
2026-05-05 22:20 53.28904 158.36722 5850 ft 252 kts 334°
2026-05-05 22:20 53.30507 158.35611 6752 ft 253 kts 335°
2026-05-05 22:20 53.32121 158.34492 7600 ft 255 kts 335°
2026-05-05 22:20 53.33763 158.33351 8337 ft 261 kts 334°
2026-05-05 22:21 53.35429 158.32188 9149 ft 262 kts 332°
2026-05-05 22:21 53.37030 158.30661 9803 ft 276 kts 325°
2026-05-05 22:21 53.38692 158.28877 10442 ft 296 kts 324°
2026-05-05 22:21 53.40461 158.26965 11211 ft 313 kts 325°
2026-05-05 22:22 53.42331 158.24944 12006 ft 330 kts 325°
2026-05-05 22:22 53.44288 158.22827 12872 ft 344 kts 326°
2026-05-05 22:22 53.46334 158.20612 13641 ft 361 kts 326°
2026-05-05 22:22 53.48470 158.18299 14458 ft 374 kts 327°
2026-05-05 22:23 53.50664 158.15920 15447 ft 383 kts 327°
2026-05-05 22:23 53.52896 158.13499 16518 ft 388 kts 327°
2026-05-05 22:23 53.55159 158.11041 17517 ft 393 kts 327°
2026-05-05 22:23 53.57452 158.08546 18437 ft 399 kts 327°
2026-05-05 22:24 53.59786 158.06004 19276 ft 405 kts 327°
2026-05-05 22:24 53.62152 158.03424 20086 ft 411 kts 327°
2026-05-05 22:24 53.64549 158.00806 20886 ft 415 kts 327°
2026-05-05 22:24 53.66982 157.98164 21636 ft 420 kts 329°
2026-05-05 22:25 53.69520 157.95715 22294 ft 425 kts 331°
2026-05-05 22:25 53.72111 157.93274 22941 ft 430 kts 331°
2026-05-05 22:25 53.74727 157.90797 23603 ft 435 kts 331°
2026-05-05 22:25 53.77356 157.88295 24280 ft 438 kts 331°